| time (UTC) | temp F | wind direction | speed knots | gust knots | rain 1hr in | rain 24hr in | rain mn in | humidity % | barometer mb |
| 20260504201532 | 63 | 211 | 4.3 | 11.3 | 0.00 | 0.00 | 0.00 | 64 | 1010.5 |
| 20260504200032 | 63 | 221 | 3.5 | 10.4 | 0.00 | 0.00 | 0.00 | 62 | 1010.5 |
| 20260504194533 | 63 | 234 | 4.3 | 9.6 | 0.00 | 0.00 | 0.00 | 63 | 1010.6 |
| 20260504193028 | 63 | 198 | 3.5 | 15.6 | 0.00 | 0.00 | 0.00 | 64 | 1010.8 |
| 20260504191527 | 63 | 158 | 4.3 | 12.2 | 0.00 | 0.00 | 0.00 | 63 | 1010.9 |
| 20260504190027 | 64 | 171 | 3.5 | 10.4 | 0.00 | 0.00 | 0.00 | 62 | 1011.1 |
| 20260504184525 | 65 | 161 | 5.2 | 13.9 | 0.00 | 0.00 | 0.00 | 59 | 1011.2 |
| 20260504183023 | 64 | 115 | 1.7 | 12.2 | 0.00 | 0.00 | 0.00 | 61 | 1011.3 |
| 20260504181522 | 65 | 169 | 2.6 | 10.4 | 0.00 | 0.00 | 0.00 | 57 | 1011.3 |
| 20260504180021 | 65 | 168 | 3.5 | 10.4 | 0.00 | 0.00 | 0.00 | 59 | 1011.6 |
| 20260504174520 | 65 | 147 | 3.5 | 8.7 | 0.00 | 0.00 | 0.00 | 60 | 1011.5 |
| 20260504173021 | 66 | 143 | 3.5 | 7.0 | 0.00 | 0.00 | 0.00 | 58 | 1011.7 |
| 20260504171523 | 65 | 192 | 2.6 | 7.0 | 0.00 | 0.00 | 0.00 | 56 | 1011.8 |
| 20260504081558 | 49 | 304 | 0.0 | 1.7 | 0.00 | 0.00 | 0.00 | 63 | 1013.5 |
| 20260504044536 | 50 | 311 | 0.0 | 0.0 | 0.00 | 0.00 | 0.00 | 62 | 1012.6 |
| 20260504043045 | 49 | 311 | 0.0 | 0.0 | 0.00 | 0.00 | 0.00 | 62 | 1012.5 |
| 20260504041538 | 49 | 311 | 0.0 | 0.9 | 0.00 | 0.00 | 0.00 | 62 | 1012.4 |
| 20260504040033 | 49 | 311 | 0.0 | 0.9 | 0.00 | 0.00 | 0.00 | 62 | 1012.4 |
| 20260504034534 | 50 | 311 | 0.0 | 0.9 | 0.00 | 0.00 | 0.00 | 61 | 1012.4 |
| 20260504033036 | 50 | 311 | 0.0 | 1.7 | 0.00 | 0.00 | 0.00 | 62 | 1012.2 |
| 20260504031530 | 49 | 311 | 0.0 | 0.9 | 0.00 | 0.00 | 0.00 | 62 | 1012.2 |
| 20260504030032 | 49 | 311 | 0.0 | 0.9 | 0.00 | 0.00 | 0.00 | 62 | 1012.3 |
| 20260504024529 | 49 | 311 | 0.0 | 0.9 | 0.00 | 0.00 | 0.00 | 60 | 1012.2 |
| 20260504023029 | 49 | 311 | 0.0 | 0.0 | 0.00 | 0.00 | 0.00 | 55 | 1012.2 |
| 20260504021527 | 49 | 311 | 0.0 | 0.0 | 0.00 | 0.00 | 0.00 | 52 | 1012.2 |
| 20260504020027 | 50 | 311 | 0.0 | 0.0 | 0.00 | 0.00 | 0.00 | 50 | 1012.1 |
| 20260504014536 | 51 | 311 | 0.0 | 0.0 | 0.00 | 0.00 | 0.00 | 48 | 1012.1 |
| 20260504013023 | 52 | 311 | 0.0 | 0.9 | 0.00 | 0.00 | 0.00 | 48 | 1012.0 |
| 20260504011523 | 53 | 311 | 0.0 | 0.0 | 0.00 | 0.00 | 0.00 | 44 | 1011.7 |
| 20260504010020 | 54 | 311 | 0.0 | 0.0 | 0.00 | 0.00 | 0.00 | 40 | 1011.5 |
| 20260504004521 | 56 | 311 | 0.0 | 0.0 | 0.00 | 0.00 | 0.00 | 37 | 1011.4 |
| 20260504003019 | 57 | 311 | 0.0 | 1.7 | 0.00 | 0.00 | 0.00 | 36 | 1011.1 |
| 20260504001517 | 57 | 311 | 0.9 | 5.2 | 0.00 | 0.00 | 0.00 | 34 | 1010.9 |
| 20260504000016 | 57 | 311 | 0.9 | 4.3 | 0.00 | 0.00 | 0.00 | 33 | 1010.8 |
| 20260503234615 | 58 | 290 | 0.9 | 4.3 | 0.00 | 0.00 | 0.00 | 33 | 1010.6 |
| 20260503233015 | 58 | 284 | 1.7 | 6.1 | 0.00 | 0.00 | 0.00 | 31 | 1010.4 |
| 20260503231517 | 59 | 252 | 3.5 | 7.0 | 0.00 | 0.00 | 0.00 | 30 | 1010.3 |
| 20260503230014 | 59 | 300 | 2.6 | 10.4 | 0.00 | 0.00 | 0.00 | 30 | 1010.2 |
| 20260503224516 | 59 | 245 | 3.5 | 9.6 | 0.00 | 0.00 | 0.00 | 30 | 1010.2 |
| 20260503223014 | 59 | 254 | 4.3 | 9.6 | 0.00 | 0.00 | 0.00 | 29 | 1010.2 |
| 20260503221513 | 60 | 261 | 5.2 | 10.4 | 0.00 | 0.00 | 0.00 | 29 | 1010.1 |
| 20260503220011 | 60 | 250 | 2.6 | 9.6 | 0.00 | 0.00 | 0.00 | 30 | 1010.0 |
| 20260503214513 | 59 | 298 | 4.3 | 12.2 | 0.00 | 0.00 | 0.00 | 30 | 1010.1 |
| 20260503213008 | 59 | 280 | 3.5 | 9.6 | 0.00 | 0.00 | 0.00 | 31 | 1010.0 |
| 20260503211507 | 59 | 277 | 4.3 | 8.7 | 0.00 | 0.00 | 0.00 | 31 | 1009.9 |
| 20260503210006 | 59 | 290 | 4.3 | 13.0 | 0.00 | 0.00 | 0.00 | 32 | 1009.8 |
| 20260503204515 | 59 | 311 | 6.1 | 13.0 | 0.00 | 0.00 | 0.00 | 31 | 1010.0 |
| 20260503203006 | 59 | 253 | 7.0 | 12.2 | 0.00 | 0.00 | 0.00 | 32 | 1009.9 |